User: anonymous   Login
Location: Slidell
(30.2789°N, 89.7378°W)
Time: 02:09:48
(UTC-06:00)
Language:

Cosmos 2360 Rocket - Orbit

View from above orbital plane
View from above orbital plane
View from above satellite
View from above satellite

Ground track
Ground track

The orbit data is extracted from the following two-line orbital elements,

1 25407U 98045B   16045.14809685  .00000086  00000-0  68241-4 0  9990
2 25407  71.0138 349.1087 0009809 240.7348 119.2795 14.15739621906969
Epoch (UTC): 14 February 2016 03:33:15
Eccentricity: 0.0009809
inclination: 71.0138°
perigee height: 833 km
apogee height: 847 km
right ascension of ascending node: 349.1087°
argument of perigee: 240.7348°
revolutions per day: 14.15739621
mean anomaly at epoch: 119.2795°
orbit number at epoch: 90696

The dashed part of the orbit path shows where the satellite is in the earth's shadow,  

DLR